This demonstration page uses our WeatherBlox Daily Observations layout. Learn more.

Left ArrowRight Arrow

39.01783, -85.05884

Hourly Observations for March 6, 2022

Temp ( °F °C ) Dew Point ( °F °C ) Humidity (%) Winds ( mph kmh ) Pressure ( in mb ) Visibility ( mi km ) Precip ( " mm )
12:52 am 00:52 Cloudy 69 20.6 50 10 51 51 SSW 22 35 29.91 1013 10 16 0.00 0.00
1:52 am 01:52 Mostly Cloudy 69 20.6 49 9.4 49 49 SSW 22 35 29.90 1013 10 16 0.00 0.00
2:52 am 02:52 Mostly Cloudy 69 20.6 50 10 51 51 SSW 22 35 29.87 1011 10 16 0.00 0.00
3:43 am 03:43 Cloudy with Strong Thunderstorms 62 16.7 53 11.7 73 73 WSW 16 26 29.94 1014 2 3 0.03 0.76
3:44 am 03:44 Cloudy with Strong Thunderstorms 62 16.7 53 11.7 73 73 WSW 20 31 29.94 1014 2 3 0.03 0.76
3:52 am 03:52 Cloudy with Strong Thunderstorms 62 16.7 47 8.3 58 58 SW 17 28 29.92 1013 2 2 0.21 5.33
4:11 am 04:11 Cloudy with Light Rain 62 16.7 51 10.6 67 67 SW 13 20 29.94 1014 4 6 0.05 1.27
4:52 am 04:52 Cloudy with Rain 61 16.1 52 11.1 72 72 SSW 13 20 29.93 1014 5 8 0.11 2.79
5:52 am 05:52 Mostly Cloudy 61 16.1 51 10.6 70 70 SSW 12 19 29.93 1014 10 16 0.03 0.76
6:52 am 06:52 Cloudy 62 16.7 47 8.3 58 58 SSW 12 19 29.96 1015 10 16 0.00 0.00
7:52 am 07:52 Mostly Cloudy 62 16.7 48 8.9 60 60 SSW 13 20 29.96 1015 10 16 0.00 0.00
8:52 am 08:52 Partly Cloudy 63 17.2 48 8.9 58 58 SW 12 19 29.98 1015 10 16 0.00 0.00
9:52 am 09:52 Mostly Cloudy 65 18.3 48 8.9 54 54 SSW 15 24 29.99 1016 10 16 0.00 0.00
10:52 am 10:52 Mostly Cloudy 64 17.8 31 -0.6 29 29 SSW 14 22 29.99 1016 10 16 0.00 0.00
11:22 am 11:22 Mostly Cloudy 65 18.3 32 0 29 29 SSW 20 31 29.99 1016 10 16 0.00 0.00
11:52 am 11:52 Mostly Cloudy 66 18.9 35 1.7 32 32 SW 16 26 30.00 1016 10 16 0.00 0.00
12:52 pm 12:52 Cloudy 66 18.9 37 2.8 34 34 SSW 15 24 29.99 1016 10 16 0.00 0.00
1:52 pm 13:52 Cloudy 66 18.9 34 1.1 30 30 SSW 14 22 29.98 1015 10 16 0.00 0.00
2:52 pm 14:52 Mostly Cloudy 69 20.6 34 1.1 27 27 S 17 28 29.95 1014 10 16 0.00 0.00
3:40 pm 15:40 Mostly Cloudy with Nearby Thunderstorms 69 20.6 36 2.2 30 30 SSW 17 28 29.96 1014 10 16 0.00 0.00
3:52 pm 15:52 Mostly Cloudy with Nearby Thunderstorms 68 20 35 1.7 30 30 SSW 21 33 29.96 1014 10 16 0.00 0.00
4:03 pm 16:03 Mostly Cloudy 68 20 35 1.7 30 30 SSW 18 30 29.97 1015 10 16 0.00 0.00
4:52 pm 16:52 Mostly Cloudy 66 18.9 34 1.1 30 30 SSW 16 26 29.98 1015 8 13 0.00 0.00
5:22 pm 17:22 Cloudy with Heavy Rain 64 17.8 26 -3.3 24 24 VRB 7 11 29.99 1016 2 3 0.06 1.52
5:45 pm 17:45 Mostly Cloudy 64 17.8 33 0.6 32 32 W 3 6 29.99 1016 10 16 0.11 2.79
5:52 pm 17:52 Mostly Cloudy 64 17.8 33 0.6 32 32 W 5 7 30.00 1016 9 14 0.11 2.79
6:52 pm 18:52 Mostly Cloudy 63 17.2 62 16.7 97 97 Calm 30.01 1016 6 10 0.00 0.00
7:52 pm 19:52 Cloudy 60 15.6 60 15.6 100 100 S 3 6 30.00 1016 8 13 0.00 0.00
8:52 pm 20:52 Cloudy 61 16.1 61 16.1 100 100 S 7 11 29.97 1015 8 13 0.00 0.00
9:43 pm 21:43 Cloudy with Mist and Fog 58 14.4 58 14.4 100 100 S 7 11 29.98 1015 6 10 0.00 0.00
9:52 pm 21:52 Cloudy 58 14.4 58 14.4 100 100 S 7 11 29.95 1014 8 13 0.00 0.00
10:02 pm 22:02 Cloudy 60 15.6 59 15 96 96 S 8 13 29.96 1015 7 11 0.00 0.00
10:10 pm 22:10 Cloudy with Light Rain 60 15.6 59 15 96 96 SSE 9 15 29.96 1015 7 11 0.00 0.00
10:52 pm 22:52 Cloudy with Light Rain 60 15.6 59 15 96 96 SSE 17 28 29.90 1013 7 11 0.02 0.51
11:41 pm 23:41 Cloudy with Light Rain 59 15 58 14.4 96 96 SSE 5 7 29.86 1011 3 5 0.07 1.78
11:52 pm 23:52 Cloudy with Rain 59 15 58 14.4 96 96 SSE 5 7 29.85 1011 3 5 0.08 2.03

Powered by AerisWeather